SHIJIAN-17 (SJ-17) (41838 NORAD) Tracking and Keplerian Element Data

This shows tracking and keplerian element data for the satellite.

Feedback or suggestion? Click here.




ElementValue
Catalog41838
NameSHIJIAN-17 (SJ-17)
Epoch Orbit3021
Epoch Day34.71971615
Epoch Year2025
RAAN78.6591
Inclination4.4795
Eccentricity0.0005622
Argument of Perigee233.8442
Mean Anonmoly262.6691
Mean Motion1.00271192
Decay Rate6.6E-07
L11 41838U 16065A 25034.71971615 .00000066 00000+0 00000+0 0 9993
L22 41838 4.4795 78.6591 0005622 233.8442 262.6691 1.00271192 30213



Live tracking and technical data element details for SHIJIAN-17 (SJ-17) (NORAD 41838). SHIJIAN-17 (SJ-17) can be tracked NOW for your location showing map with azimuth and elevation plus other details from your city location.







IsCatalogInMostPopularTable: catalog: 41838, numindb: 793
Update: records affected: 1



GetName: 41838 SHIJIAN-17 (SJ-17)

Hit Count: updated at: Wed, 18 Jun 2025 06:14:45 GMT